| time (UTC) | temp F | wind direction | speed MPH | gust MPH | rain 1hr in | rain 24hr in | rain mn in | humidity % | barometer mb |
| 20260902103956 | 60 | 162 | 5.0 | 15.0 | 0.00 | 0.00 | 0.00 | 1 | 1014.2 |
| 20260902103519 | 60 | 115 | 9.0 | 15.0 | 0.00 | 0.00 | 0.00 | 1 | 1014.3 |
| 20260902102943 | 60 | 140 | 8.0 | 15.0 | 0.00 | 0.00 | 0.00 | 1 | 1014.4 |
| 20260902102507 | 60 | 123 | 6.0 | 15.0 | 0.00 | 0.00 | 0.00 | 1 | 1014.4 |
| 20260902102002 | 60 | 134 | 5.0 | 13.0 | 0.00 | 0.00 | 0.00 | 1 | 1014.5 |
| 20260902101446 | 60 | 135 | 7.0 | 13.0 | 0.00 | 0.00 | 0.00 | 1 | 1014.6 |
| 20260902100959 | 60 | 133 | 4.0 | 12.0 | 0.00 | 0.00 | 0.00 | 1 | 1014.6 |
| 20260902100523 | 60 | 118 | 7.0 | 11.0 | 0.00 | 0.00 | 0.00 | 1 | 1014.6 |
| 20260902095945 | 60 | 179 | 5.0 | 11.0 | 0.00 | 0.00 | 0.00 | 1 | 1014.6 |
| 20260902095509 | 60 | 159 | 3.0 | 10.0 | 0.00 | 0.00 | 0.00 | 1 | 1014.7 |
| 20260902095003 | 60 | 139 | 4.0 | 10.0 | 0.00 | 0.00 | 0.00 | 1 | 1014.7 |
| 20260902094448 | 60 | 154 | 5.0 | 12.0 | 0.00 | 0.00 | 0.00 | 1 | 1014.8 |
| 20260902093950 | 60 | 138 | 4.0 | 12.0 | 0.00 | 0.00 | 0.00 | 1 | 1014.9 |
| 20260902093504 | 60 | 142 | 4.0 | 11.0 | 0.00 | 0.00 | 0.00 | 1 | 1014.9 |
| 20260902093013 | 60 | 138 | 4.0 | 10.0 | 0.00 | 0.00 | 0.00 | 1 | 1014.9 |
| 20260902092507 | 60 | 154 | 4.0 | 9.0 | 0.00 | 0.00 | 0.00 | 1 | 1015.0 |
| 20260902091958 | 60 | 153 | 2.0 | 7.0 | 0.00 | 0.00 | 0.00 | 1 | 1015.0 |
| 20260902091453 | 59 | 150 | 4.0 | 7.0 | 0.00 | 0.00 | 0.00 | 1 | 1015.0 |
| 20260902090947 | 59 | 144 | 1.0 | 7.0 | 0.00 | 0.00 | 0.00 | 1 | 1015.0 |
| 20260902090509 | 59 | 134 | 2.0 | 7.0 | 0.00 | 0.00 | 0.00 | 1 | 1015.1 |
| 20260902085954 | 59 | 64 | 1.0 | 4.0 | 0.00 | 0.00 | 0.00 | 1 | 1015.0 |
| 20260902085517 | 59 | 117 | 1.0 | 6.0 | 0.00 | 0.00 | 0.00 | 1 | 1015.0 |
| 20260902085009 | 59 | 105 | 1.0 | 7.0 | 0.00 | 0.00 | 0.00 | 1 | 1015.1 |
| 20260902084504 | 59 | 143 | 2.0 | 7.0 | 0.00 | 0.00 | 0.00 | 1 | 1015.1 |
| 20260902083949 | 59 | 136 | 2.0 | 4.0 | 0.00 | 0.00 | 0.00 | 1 | 1015.2 |
| 20260902083503 | 59 | 117 | 2.0 | 4.0 | 0.00 | 0.00 | 0.00 | 1 | 1015.2 |
| 20260902083005 | 59 | 90 | 2.0 | 4.0 | 0.00 | 0.00 | 0.00 | 1 | 1015.2 |
| 20260902082450 | 58 | 136 | 1.0 | 4.0 | 0.00 | 0.00 | 0.00 | 1 | 1015.2 |
| 20260902082005 | 58 | 109 | 2.0 | 5.0 | 0.00 | 0.00 | 0.00 | 1 | 1015.3 |
| 20260902081507 | 58 | 128 | 1.0 | 5.0 | 0.00 | 0.00 | 0.00 | 1 | 1015.3 |
| 20260902080953 | 58 | 175 | 2.0 | 4.0 | 0.00 | 0.00 | 0.00 | 1 | 1015.3 |
| 20260902080448 | 58 | 109 | 2.0 | 5.0 | 0.00 | 0.00 | 0.00 | 1 | 1015.2 |
| 20260902075941 | 58 | 133 | 1.0 | 5.0 | 0.00 | 0.00 | 0.00 | 1 | 1015.3 |
| 20260902075457 | 58 | 118 | 2.0 | 5.0 | 0.00 | 0.00 | 0.00 | 1 | 1015.2 |
| 20260902075008 | 58 | 142 | 2.0 | 4.0 | 0.00 | 0.00 | 0.00 | 1 | 1015.2 |
| 20260902074442 | 58 | 112 | 1.0 | 4.0 | 0.00 | 0.00 | 0.00 | 1 | 1015.1 |
| 20260902074016 | 58 | 113 | 1.0 | 3.0 | 0.00 | 0.00 | 0.00 | 1 | 1015.1 |
| 20260902073450 | 58 | 114 | 1.0 | 4.0 | 0.00 | 0.00 | 0.00 | 1 | 1015.2 |
| 20260902072946 | 58 | 109 | 2.0 | 4.0 | 0.00 | 0.00 | 0.00 | 1 | 1015.2 |
| 20260902072441 | 58 | 126 | 0.0 | 6.0 | 0.00 | 0.00 | 0.00 | 1 | 1015.2 |
| 20260902071956 | 58 | 134 | 1.0 | 6.0 | 0.00 | 0.00 | 0.00 | 1 | 1015.2 |
| 20260902071440 | 58 | 115 | 1.0 | 6.0 | 0.00 | 0.00 | 0.00 | 1 | 1015.2 |
| 20260902071004 | 58 | 114 | 1.0 | 4.0 | 0.00 | 0.00 | 0.00 | 1 | 1015.2 |
| 20260902070450 | 57 | 73 | 2.0 | 6.0 | 0.00 | 0.00 | 0.00 | 1 | 1015.2 |
| 20260902065944 | 57 | 123 | 1.0 | 4.0 | 0.00 | 0.00 | 0.00 | 1 | 1015.2 |
| 20260902065459 | 57 | 114 | 1.0 | 4.0 | 0.00 | 0.00 | 0.00 | 1 | 1015.2 |
| 20260902065014 | 57 | 109 | 1.0 | 3.0 | 0.00 | 0.00 | 0.00 | 1 | 1015.2 |
| 20260902064448 | 57 | 69 | 1.0 | 2.0 | 0.00 | 0.00 | 0.00 | 1 | 1015.2 |
| 20260902063943 | 57 | 130 | 0.0 | 3.0 | 0.00 | 0.00 | 0.00 | 1 | 1021.5 |
| 20260902063458 | 57 | 123 | 1.0 | 3.0 | 0.00 | 0.00 | 0.00 | 1 | 1015.1 |
| 20260902062952 | 57 | 130 | 1.0 | 5.0 | 0.00 | 0.00 | 0.00 | 1 | 1015.2 |
| 20260902062507 | 57 | 175 | 1.0 | 4.0 | 0.00 | 0.00 | 0.00 | 1 | 1015.2 |
| 20260902062001 | 57 | 116 | 1.0 | 4.0 | 0.00 | 0.00 | 0.00 | 1 | 1015.2 |
| 20260902061454 | 57 | 127 | 1.0 | 3.0 | 0.00 | 0.00 | 0.00 | 1 | 1015.2 |
| 20260902061034 | 57 | 137 | 0.0 | 3.0 | 0.00 | 0.00 | 0.00 | 1 | 1015.2 |
| 20260902060502 | 57 | 132 | 1.0 | 2.0 | 0.00 | 0.00 | 0.00 | 1 | 1015.2 |
| 20260902055957 | 57 | 109 | 0.0 | 2.0 | 0.00 | 0.00 | 0.00 | 1 | 1015.2 |
| 20260902055452 | 57 | 110 | 1.0 | 2.0 | 0.00 | 0.00 | 0.00 | 1 | 1015.2 |
| 20260902055006 | 57 | 122 | 1.0 | 2.0 | 0.00 | 0.00 | 0.00 | 1 | 1015.1 |
| 20260902054502 | 0 | 0.0 | 0.0 | 0.00 | 0.00 | 0.00 | 1015.1 | ||
| 20260902053955 | 0 | 0.0 | 0.0 | 0.00 | 0.00 | 0.00 | 1015.0 | ||
| 20260902053510 | 0 | 0.0 | 0.0 | 0.00 | 0.00 | 0.00 | 1015.1 | ||
| 20260902052944 | 0 | 0.0 | 0.0 | 0.00 | 0.00 | 0.00 | 1015.2 | ||
| 20260902052458 | 0 | 0.0 | 0.0 | 0.00 | 0.00 | 0.00 | 1015.1 | ||
| 20260902051945 | 0 | 0.0 | 0.0 | 0.00 | 0.00 | 0.00 | 1015.1 | ||
| 20260902051440 | 0 | 0.0 | 0.0 | 0.00 | 0.00 | 0.00 | 1015.2 | ||
| 20260902050955 | 0 | 0.0 | 0.0 | 0.00 | 0.00 | 0.00 | 1015.1 | ||
| 20260902050450 | 0 | 0.0 | 0.0 | 0.00 | 0.00 | 0.00 | 1015.1 | ||
| 20260902045944 | 0 | 0.0 | 0.0 | 0.00 | 0.00 | 0.00 | 1015.1 | ||
| 20260902045459 | 0 | 0.0 | 0.0 | 0.00 | 0.00 | 0.00 | 1015.1 | ||
| 20260902044954 | 0 | 0.0 | 0.0 | 0.00 | 0.00 | 0.00 | 1015.2 | ||
| 20260902044439 | 0 | 0.0 | 0.0 | 0.00 | 0.00 | 0.00 | 1015.2 | ||
| 20260902044003 | 0 | 0.0 | 0.0 | 0.00 | 0.00 | 0.00 | 1015.2 | ||
| 20260902043450 | 0 | 0.0 | 0.0 | 0.00 | 0.00 | 0.00 | 1015.3 | ||
| 20260902042945 | 0 | 0.0 | 0.0 | 0.00 | 0.00 | 0.00 | 1015.2 | ||
| 20260902042440 | 0 | 0.0 | 0.0 | 0.00 | 0.00 | 0.00 | 1015.2 | ||
| 20260902041508 | 0 | 0.0 | 0.0 | 0.00 | 0.00 | 0.00 | 1015.0 | ||
| 20260902041018 | 0 | 0.0 | 0.0 | 0.00 | 0.00 | 0.00 | 1014.9 | ||
| 20260902040511 | 0 | 0.0 | 0.0 | 0.00 | 0.00 | 0.00 | 1015.1 | ||
| 20260902040012 | 0 | 0.0 | 0.0 | 0.00 | 0.00 | 0.00 | 1015.1 | ||
| 20260902035505 | 0 | 0.0 | 0.0 | 0.00 | 0.00 | 0.00 | 1015.2 | ||
| 20260902034951 | 0 | 0.0 | 0.0 | 0.00 | 0.00 | 0.00 | 1015.3 | ||
| 20260902034515 | 0 | 0.0 | 0.0 | 0.00 | 0.00 | 0.00 | 1015.3 | ||
| 20260902033948 | 0 | 0.0 | 0.0 | 0.00 | 0.00 | 0.00 | 1015.2 | ||
| 20260902033503 | 0 | 0.0 | 0.0 | 0.00 | 0.00 | 0.00 | 1015.3 | ||
| 20260902032959 | 0 | 0.0 | 0.0 | 0.00 | 0.00 | 0.00 | 1015.3 | ||
| 20260902032514 | 0 | 0.0 | 0.0 | 0.00 | 0.00 | 0.00 | 1015.4 | ||
| 20260902032008 | 0 | 0.0 | 0.0 | 0.00 | 0.00 | 0.00 | 1015.5 | ||
| 20260902031502 | 0 | 0.0 | 0.0 | 0.00 | 0.00 | 0.00 | 1015.4 | ||
| 20260902030957 | 0 | 0.0 | 0.0 | 0.00 | 0.00 | 0.00 | 1015.5 | ||
| 20260902030443 | 0 | 0.0 | 0.0 | 0.00 | 0.00 | 0.00 | 1015.6 | ||
| 20260902030006 | 0 | 0.0 | 0.0 | 0.00 | 0.00 | 0.00 | 1015.5 | ||
| 20260902025453 | 0 | 0.0 | 0.0 | 0.00 | 0.00 | 0.00 | 1015.5 | ||
| 20260902024948 | 0 | 0.0 | 0.0 | 0.00 | 0.00 | 0.00 | 1015.6 | ||
| 20260902024503 | 0 | 0.0 | 0.0 | 0.00 | 0.00 | 0.00 | 1015.6 | ||
| 20260902023955 | 0 | 0.0 | 0.0 | 0.00 | 0.00 | 0.00 | 1015.7 | ||
| 20260902023450 | 0 | 0.0 | 0.0 | 0.00 | 0.00 | 0.00 | 1015.7 | ||
| 20260902022945 | 0 | 0.0 | 0.0 | 0.00 | 0.00 | 0.00 | 1015.8 | ||
| 20260902022456 | 0 | 0.0 | 0.0 | 0.00 | 0.00 | 0.00 | 1015.8 | ||
| 20260902022011 | 0 | 0.0 | 0.0 | 0.00 | 0.00 | 0.00 | 1015.8 | ||
| 20260902021446 | 0 | 0.0 | 0.0 | 0.00 | 0.00 | 0.00 | 1015.8 | ||
| 20260902020959 | 0 | 0.0 | 0.0 | 0.00 | 0.00 | 0.00 | 1015.9 | ||
| 20260902015959 | 0 | 0.0 | 0.0 | 0.00 | 0.00 | 0.00 | 1016.0 | ||
| 20260902015454 | 0 | 0.0 | 0.0 | 0.00 | 0.00 | 0.00 | 1016.0 | ||
| 20260902014948 | 0 | 0.0 | 0.0 | 0.00 | 0.00 | 0.00 | 1016.0 | ||
| 20260902014444 | 0 | 0.0 | 0.0 | 0.00 | 0.00 | 0.00 | 1016.0 | ||
| 20260902014019 | 0 | 0.0 | 0.0 | 0.00 | 0.00 | 0.00 | 1016.0 | ||
| 20260902013453 | 0 | 0.0 | 0.0 | 0.00 | 0.00 | 0.00 | 1016.0 | ||
| 20260902012948 | 0 | 0.0 | 0.0 | 0.00 | 0.00 | 0.00 | 1015.9 | ||
| 20260902012503 | 0 | 0.0 | 0.0 | 0.00 | 0.00 | 0.00 | 1015.8 | ||
| 20260902011958 | 0 | 0.0 | 0.0 | 0.00 | 0.00 | 0.00 | 1015.8 | ||
| 20260902011453 | 0 | 0.0 | 0.0 | 0.00 | 0.00 | 0.00 | 1015.9 | ||
| 20260902011008 | 0 | 0.0 | 0.0 | 0.00 | 0.00 | 0.00 | 1015.9 | ||
| 20260902010454 | 0 | 0.0 | 0.0 | 0.00 | 0.00 | 0.00 | 1015.9 | ||
| 20260902005949 | 0 | 0.0 | 0.0 | 0.00 | 0.00 | 0.00 | 1016.0 | ||
| 20260902005445 | 0 | 0.0 | 0.0 | 0.00 | 0.00 | 0.00 | 1016.0 | ||
| 20260902004941 | 0 | 0.0 | 0.0 | 0.00 | 0.00 | 0.00 | 1016.0 | ||
| 20260902004457 | 0 | 0.0 | 0.0 | 0.00 | 0.00 | 0.00 | 1016.0 | ||
| 20260902003450 | 0 | 0.0 | 0.0 | 0.00 | 0.00 | 0.00 | 1016.0 | ||
| 20260902002946 | 0 | 0.0 | 0.0 | 0.00 | 0.00 | 0.00 | 1016.1 | ||
| 20260902002441 | 0 | 0.0 | 0.0 | 0.00 | 0.00 | 0.00 | 1016.0 | ||
| 20260902001507 | 60 | 142 | 1.0 | 2.0 | 0.00 | 0.00 | 0.00 | 1 | 1016.0 |
| 20260902000942 | 60 | 142 | 1.0 | 2.0 | 0.00 | 0.00 | 0.00 | 1 | 1016.0 |
| 20260902000459 | 60 | 139 | 1.0 | 2.0 | 0.00 | 0.00 | 0.00 | 1 | 1016.1 |
| 20260902000013 | 60 | 131 | 1.0 | 2.0 | 0.00 | 0.00 | 0.00 | 1 | 1016.2 |
| 20260901235507 | 60 | 153 | 1.0 | 2.0 | 0.00 | 0.00 | 0.00 | 1 | 1016.2 |
| 20260901234941 | 60 | 150 | 1.0 | 2.0 | 0.00 | 0.00 | 0.00 | 1 | 1016.3 |
| 20260901234456 | 60 | 150 | 1.0 | 2.0 | 0.00 | 0.00 | 0.00 | 1 | 1016.3 |
| 20260901233952 | 60 | 119 | 0.0 | 1.0 | 0.00 | 0.00 | 0.00 | 1 | 1016.3 |
| 20260901233507 | 60 | 109 | 0.0 | 1.0 | 0.00 | 0.00 | 0.00 | 1 | 1016.3 |
| 20260901233002 | 61 | 109 | 0.0 | 2.0 | 0.00 | 0.00 | 0.00 | 1 | 1016.2 |
| 20260901232449 | 61 | 107 | 0.0 | 1.0 | 0.00 | 0.00 | 0.00 | 1 | 1016.3 |
| 20260901231944 | 61 | 107 | 0.0 | 3.0 | 0.00 | 0.00 | 0.00 | 1 | 1016.3 |
| 20260901231508 | 61 | 97 | 1.0 | 3.0 | 0.00 | 0.00 | 0.00 | 1 | 1016.2 |
| 20260901230954 | 61 | 156 | 0.0 | 2.0 | 0.00 | 0.00 | 0.00 | 1 | 1016.2 |
| 20260901230505 | 61 | 156 | 0.0 | 2.0 | 0.00 | 0.00 | 0.00 | 1 | 1022.6 |
| 20260901230006 | 61 | 157 | 0.0 | 3.0 | 0.00 | 0.00 | 0.00 | 1 | 1016.3 |
| 20260901225519 | 61 | 155 | 1.0 | 3.0 | 0.00 | 0.00 | 0.00 | 1 | 1016.3 |
| 20260901224951 | 61 | 134 | 2.0 | 4.0 | 0.00 | 0.00 | 0.00 | 1 | 1016.3 |
| 20260901224504 | 61 | 122 | 2.0 | 3.0 | 0.00 | 0.00 | 0.00 | 1 | 1016.3 |
| 20260901223950 | 61 | 132 | 1.0 | 3.0 | 0.00 | 0.00 | 0.00 | 1 | 1016.3 |
| 20260901223445 | 61 | 101 | 1.0 | 2.0 | 0.00 | 0.00 | 0.00 | 1 | 1016.3 |
| 20260901223029 | 61 | 145 | 1.0 | 2.0 | 0.00 | 0.00 | 0.00 | 1 | 1016.3 |
| 20260901222454 | 61 | 145 | 0.0 | 3.0 | 0.00 | 0.00 | 0.00 | 1 | 1016.3 |
| 20260901221957 | 61 | 148 | 2.0 | 3.0 | 0.00 | 0.00 | 0.00 | 1 | 1016.2 |
| 20260901221444 | 61 | 175 | 0.0 | 2.0 | 0.00 | 0.00 | 0.00 | 1 | 1016.2 |
| 20260901221006 | 62 | 175 | 1.0 | 2.0 | 0.00 | 0.00 | 0.00 | 1 | 1016.3 |
| 20260901220501 | 62 | 189 | 0.0 | 2.0 | 0.00 | 0.00 | 0.00 | 1 | 1016.3 |
| 20260901220015 | 62 | 197 | 0.0 | 2.0 | 0.00 | 0.00 | 0.00 | 1 | 1016.3 |
| 20260901215451 | 62 | 197 | 0.0 | 2.0 | 0.00 | 0.00 | 0.00 | 1 | 1016.2 |
| 20260901215005 | 62 | 202 | 0.0 | 2.0 | 0.00 | 0.00 | 0.00 | 1 | 1016.3 |
| 20260901214451 | 62 | 205 | 0.0 | 3.0 | 0.00 | 0.00 | 0.00 | 1 | 1016.3 |
| 20260901213946 | 62 | 205 | 1.0 | 3.0 | 0.00 | 0.00 | 0.00 | 1 | 1016.3 |
| 20260901213440 | 62 | 192 | 1.0 | 3.0 | 0.00 | 0.00 | 0.00 | 1 | 1016.3 |
| 20260901212956 | 62 | 198 | 0.0 | 3.0 | 0.00 | 0.00 | 0.00 | 1 | 1016.3 |
| 20260901212450 | 62 | 217 | 1.0 | 4.0 | 0.00 | 0.00 | 0.00 | 1 | 1016.3 |
| 20260901211945 | 62 | 234 | 2.0 | 5.0 | 0.00 | 0.00 | 0.00 | 1 | 1016.3 |
| 20260901211515 | 62 | 208 | 2.0 | 6.0 | 0.00 | 0.00 | 0.00 | 1 | 1016.4 |
| 20260901211008 | 62 | 220 | 2.0 | 6.0 | 0.00 | 0.00 | 0.00 | 1 | 1016.3 |
| 20260901210442 | 62 | 244 | 1.0 | 4.0 | 0.00 | 0.00 | 0.00 | 1 | 1016.3 |
| 20260901210018 | 62 | 249 | 1.0 | 4.0 | 0.00 | 0.00 | 0.00 | 1 | 1016.3 |
| 20260901205451 | 63 | 242 | 1.0 | 5.0 | 0.00 | 0.00 | 0.00 | 1 | 1016.4 |
| 20260901204946 | 63 | 217 | 1.0 | 7.0 | 0.00 | 0.00 | 0.00 | 1 | 1016.3 |
| 20260901204440 | 63 | 243 | 1.0 | 8.0 | 0.00 | 0.00 | 0.00 | 1 | 1016.3 |
| 20260901203955 | 63 | 227 | 2.0 | 8.0 | 0.00 | 0.00 | 0.00 | 1 | 1016.4 |
| 20260901203510 | 63 | 209 | 2.0 | 7.0 | 0.00 | 0.00 | 0.00 | 1 | 1016.4 |
| 20260901202943 | 63 | 210 | 3.0 | 6.0 | 0.00 | 0.00 | 0.00 | 1 | 1022.7 |
| 20260901202458 | 63 | 227 | 2.0 | 6.0 | 0.00 | 0.00 | 0.00 | 1 | 1016.4 |
| 20260901201952 | 63 | 214 | 2.0 | 7.0 | 0.00 | 0.00 | 0.00 | 1 | 1016.5 |
| 20260901201447 | 63 | 244 | 1.0 | 7.0 | 0.00 | 0.00 | 0.00 | 1 | 1016.5 |
| 20260901200940 | 63 | 238 | 2.0 | 6.0 | 0.00 | 0.00 | 0.00 | 1 | 1016.5 |
| 20260901200456 | 63 | 230 | 1.0 | 6.0 | 0.00 | 0.00 | 0.00 | 1 | 1016.5 |
| 20260901195951 | 63 | 207 | 1.0 | 4.0 | 0.00 | 0.00 | 0.00 | 1 | 1016.5 |
| 20260901195445 | 63 | 208 | 1.0 | 7.0 | 0.00 | 0.00 | 0.00 | 1 | 1016.4 |
| 20260901194959 | 64 | 208 | 3.0 | 7.0 | 0.00 | 0.00 | 0.00 | 1 | 1016.5 |
| 20260901194514 | 64 | 234 | 1.0 | 4.0 | 0.00 | 0.00 | 0.00 | 1 | 1016.5 |
| 20260901193949 | 64 | 249 | 1.0 | 3.0 | 0.00 | 0.00 | 0.00 | 1 | 1016.4 |
| 20260901193444 | 64 | 214 | 0.0 | 4.0 | 0.00 | 0.00 | 0.00 | 1 | 1022.6 |
| 20260901192955 | 64 | 219 | 1.0 | 4.0 | 0.00 | 0.00 | 0.00 | 1 | 1016.3 |
| 20260901192450 | 64 | 230 | 1.0 | 4.0 | 0.00 | 0.00 | 0.00 | 1 | 1016.3 |
| 20260901192004 | 64 | 219 | 1.0 | 4.0 | 0.00 | 0.00 | 0.00 | 1 | 1016.3 |
| 20260901191450 | 65 | 227 | 1.0 | 4.0 | 0.00 | 0.00 | 0.00 | 1 | 1016.3 |
| 20260901190945 | 65 | 224 | 1.0 | 5.0 | 0.00 | 0.00 | 0.00 | 1 | 1016.2 |
| 20260901190529 | 65 | 236 | 1.0 | 5.0 | 0.00 | 0.00 | 0.00 | 1 | 1016.2 |
| 20260901185952 | 65 | 266 | 2.0 | 6.0 | 0.00 | 0.00 | 0.00 | 1 | 1016.1 |
| 20260901185516 | 65 | 248 | 2.0 | 8.0 | 0.00 | 0.00 | 0.00 | 1 | 1016.2 |
| 20260901184940 | 65 | 229 | 2.0 | 5.0 | 0.00 | 0.00 | 0.00 | 1 | 1016.1 |
| 20260901184455 | 65 | 239 | 2.0 | 5.0 | 0.00 | 0.00 | 0.00 | 1 | 1016.2 |
| 20260901183950 | 65 | 231 | 1.0 | 5.0 | 0.00 | 0.00 | 0.00 | 1 | 1016.1 |
| 20260901183446 | 66 | 259 | 2.0 | 5.0 | 0.00 | 0.00 | 0.00 | 1 | 1016.2 |
| 20260901183030 | 66 | 248 | 2.0 | 7.0 | 0.00 | 0.00 | 0.00 | 1 | 1016.2 |
| 20260901182522 | 66 | 220 | 4.0 | 7.0 | 0.00 | 0.00 | 0.00 | 1 | 1016.1 |
| 20260901181949 | 66 | 299 | 3.0 | 9.0 | 0.00 | 0.00 | 0.00 | 1 | 1016.1 |
| 20260901181444 | 66 | 259 | 4.0 | 9.0 | 0.00 | 0.00 | 0.00 | 1 | 1016.1 |
| 20260901180940 | 66 | 258 | 3.0 | 11.0 | 0.00 | 0.00 | 0.00 | 5 | 1016.1 |
| 20260901180456 | 66 | 248 | 7.0 | 11.0 | 0.00 | 0.00 | 0.00 | 7 | 1016.2 |
| 20260901175948 | 66 | 265 | 5.0 | 11.0 | 0.00 | 0.00 | 0.00 | 9 | 1016.3 |
| 20260901175442 | 67 | 271 | 5.0 | 11.0 | 0.00 | 0.00 | 0.00 | 11 | 1016.3 |
| 20260901174958 | 67 | 263 | 6.0 | 17.0 | 0.00 | 0.00 | 0.00 | 14 | 1016.3 |
| 20260901174450 | 67 | 221 | 6.0 | 17.0 | 0.00 | 0.00 | 0.00 | 16 | 1016.3 |
| 20260901173945 | 67 | 271 | 7.0 | 15.0 | 0.00 | 0.00 | 0.00 | 17 | 1016.3 |
| 20260901173459 | 67 | 284 | 8.0 | 14.0 | 0.00 | 0.00 | 0.00 | 19 | 1016.3 |
| 20260901173009 | 67 | 223 | 4.0 | 10.0 | 0.00 | 0.00 | 0.00 | 20 | 1016.2 |
| 20260901172443 | 68 | 218 | 5.0 | 11.0 | 0.00 | 0.00 | 0.00 | 22 | 1016.2 |
| 20260901171958 | 68 | 247 | 3.0 | 10.0 | 0.00 | 0.00 | 0.00 | 24 | 1016.3 |
| 20260901171512 | 68 | 234 | 4.0 | 10.0 | 0.00 | 0.00 | 0.00 | 20 | 1016.3 |
| 20260901170945 | 68 | 286 | 4.0 | 8.0 | 0.00 | 0.00 | 0.00 | 22 | 1016.3 |
| 20260901170459 | 68 | 224 | 5.0 | 12.0 | 0.00 | 0.00 | 0.00 | 22 | 1016.3 |
| 20260901165953 | 68 | 278 | 5.0 | 14.0 | 0.00 | 0.00 | 0.00 | 24 | 1016.2 |
| 20260901165448 | 68 | 303 | 8.0 | 14.0 | 0.00 | 0.00 | 0.00 | 24 | 1016.2 |
| 20260901165004 | 68 | 252 | 7.0 | 13.0 | 0.00 | 0.00 | 0.00 | 26 | 1016.2 |
| 20260901164457 | 67 | 253 | 3.0 | 13.0 | 0.00 | 0.00 | 0.00 | 25 | 1016.3 |
| 20260901163943 | 67 | 223 | 6.0 | 12.0 | 0.00 | 0.00 | 0.00 | 23 | 1016.3 |
| 20260901163527 | 67 | 259 | 6.0 | 12.0 | 0.00 | 0.00 | 0.00 | 20 | 1016.2 |
| 20260901163000 | 67 | 223 | 5.0 | 12.0 | 0.00 | 0.00 | 0.00 | 12 | 1016.2 |
| 20260901162515 | 67 | 252 | 5.0 | 11.0 | 0.00 | 0.00 | 0.00 | 9 | 1016.2 |
| 20260901162005 | 67 | 256 | 6.0 | 13.0 | 0.00 | 0.00 | 0.00 | 7 | 1016.2 |
| 20260901161457 | 67 | 213 | 8.0 | 13.0 | 0.00 | 0.00 | 0.00 | 5 | 1016.3 |
| 20260901160943 | 67 | 255 | 5.0 | 12.0 | 0.00 | 0.00 | 0.00 | 1 | 1022.7 |
| 20260901160508 | 67 | 259 | 7.0 | 15.0 | 0.00 | 0.00 | 0.00 | 1 | 1016.4 |
| 20260901155959 | 67 | 269 | 6.0 | 15.0 | 0.00 | 0.00 | 0.00 | 1 | 1016.3 |
| 20260901155444 | 67 | 259 | 8.0 | 14.0 | 0.00 | 0.00 | 0.00 | 1 | 1016.5 |
| 20260901155007 | 67 | 236 | 6.0 | 14.0 | 0.00 | 0.00 | 0.00 | 1 | 1016.4 |
| 20260901154453 | 68 | 270 | 7.0 | 15.0 | 0.00 | 0.00 | 0.00 | 1 | 1016.8 |
| 20260901153948 | 68 | 253 | 7.0 | 15.0 | 0.00 | 0.00 | 0.00 | 1 | 1016.5 |
| 20260901153455 | 68 | 267 | 6.0 | 11.0 | 0.00 | 0.00 | 0.00 | 1 | 1016.4 |
| 20260901152950 | 68 | 254 | 4.0 | 12.0 | 0.00 | 0.00 | 0.00 | 1 | 1016.3 |
| 20260901152445 | 68 | 234 | 3.0 | 13.0 | 0.00 | 0.00 | 0.00 | 1 | 1016.4 |
| 20260901152000 | 68 | 273 | 7.0 | 12.0 | 0.00 | 0.00 | 0.00 | 1 | 1016.4 |
| 20260901151455 | 68 | 284 | 7.0 | 12.0 | 0.00 | 0.00 | 0.00 | 1 | 1016.4 |
| 20260901151010 | 68 | 258 | 6.0 | 11.0 | 0.00 | 0.00 | 0.00 | 1 | 1016.3 |
| 20260901150504 | 68 | 275 | 6.0 | 11.0 | 0.00 | 0.00 | 0.00 | 1 | 1016.4 |
| 20260901145958 | 68 | 232 | 4.0 | 10.0 | 0.00 | 0.00 | 0.00 | 3 | 1016.5 |
| 20260901145444 | 68 | 217 | 6.0 | 13.0 | 0.00 | 0.00 | 0.00 | 3 | 1016.4 |
| 20260901145008 | 68 | 246 | 5.0 | 13.0 | 0.00 | 0.00 | 0.00 | 9 | 1016.3 |
| 20260901144450 | 68 | 267 | 7.0 | 12.0 | 0.00 | 0.00 | 0.00 | 11 | 1016.3 |
| 20260901143945 | 68 | 232 | 6.0 | 15.0 | 0.00 | 0.00 | 0.00 | 10 | 1016.3 |
| 20260901143457 | 68 | 308 | 6.0 | 16.0 | 0.00 | 0.00 | 0.00 | 8 | 1016.4 |
| 20260901142952 | 68 | 269 | 7.0 | 16.0 | 0.00 | 0.00 | 0.00 | 12 | 1016.4 |
| 20260901142447 | 68 | 208 | 8.0 | 16.0 | 0.00 | 0.00 | 0.00 | 16 | 1016.4 |
| 20260901141944 | 68 | 277 | 5.0 | 14.0 | 0.00 | 0.00 | 0.00 | 16 | 1016.5 |
| 20260901141517 | 68 | 205 | 7.0 | 15.0 | 0.00 | 0.00 | 0.00 | 18 | 1016.5 |
| 20260901140951 | 68 | 269 | 7.0 | 15.0 | 0.00 | 0.00 | 0.00 | 20 | 1016.5 |
| 20260901140448 | 68 | 267 | 8.0 | 15.0 | 0.00 | 0.00 | 0.00 | 22 | 1016.5 |
| 20260901140003 | 68 | 263 | 5.0 | 13.0 | 0.00 | 0.00 | 0.00 | 17 | 1016.5 |
| 20260901135450 | 68 | 263 | 7.0 | 17.0 | 0.00 | 0.00 | 0.00 | 18 | 1016.5 |
| 20260901134946 | 68 | 238 | 11.0 | 17.0 | 0.00 | 0.00 | 0.00 | 19 | 1016.5 |
| 20260901134528 | 68 | 286 | 8.0 | 17.0 | 0.00 | 0.00 | 0.00 | 20 | 1016.5 |
| 20260901134003 | 69 | 277 | 6.0 | 13.0 | 0.00 | 0.00 | 0.00 | 14 | 1016.5 |
| 20260901133457 | 69 | 235 | 6.0 | 16.0 | 0.00 | 0.00 | 0.00 | 15 | 1016.5 |
| 20260901132943 | 69 | 255 | 7.0 | 12.0 | 0.00 | 0.00 | 0.00 | 24 | 1022.8 |
| 20260901132508 | 69 | 234 | 8.0 | 14.0 | 0.00 | 0.00 | 0.00 | 29 | 1016.5 |
| 20260901131953 | 70 | 269 | 6.0 | 14.0 | 0.00 | 0.00 | 0.00 | 23 | 1016.5 |
| 20260901131448 | 69 | 269 | 7.0 | 14.0 | 0.00 | 0.00 | 0.00 | 23 | 1016.4 |
| 20260901130944 | 69 | 256 | 6.0 | 13.0 | 0.00 | 0.00 | 0.00 | 24 | 1016.4 |
| 20260901130514 | 69 | 217 | 5.0 | 17.0 | 0.00 | 0.00 | 0.00 | 31 | 1016.5 |
| 20260901125948 | 70 | 276 | 10.0 | 16.0 | 0.00 | 0.00 | 0.00 | 30 | 1016.6 |
| 20260901125444 | 70 | 283 | 8.0 | 16.0 | 0.00 | 0.00 | 0.00 | 28 | 1016.5 |
| 20260901124959 | 70 | 245 | 8.0 | 20.0 | 0.00 | 0.00 | 0.00 | 32 | 1016.4 |
| 20260901124454 | 70 | 239 | 11.0 | 20.0 | 0.00 | 0.00 | 0.00 | 32 | 1016.5 |
| 20260901124008 | 70 | 267 | 5.0 | 13.0 | 0.00 | 0.00 | 0.00 | 26 | 1016.5 |
| 20260901123503 | 69 | 282 | 6.0 | 17.0 | 0.00 | 0.00 | 0.00 | 25 | 1016.5 |
| 20260901122949 | 69 | 232 | 9.0 | 18.0 | 0.00 | 0.00 | 0.00 | 24 | 1016.6 |
| 20260901122445 | 69 | 245 | 7.0 | 17.0 | 0.00 | 0.00 | 0.00 | 23 | 1016.7 |
| 20260901121959 | 69 | 250 | 9.0 | 18.0 | 0.00 | 0.00 | 0.00 | 29 | 1016.5 |
| 20260901121453 | 69 | 240 | 8.0 | 18.0 | 0.00 | 0.00 | 0.00 | 33 | 1016.6 |
| 20260901120948 | 69 | 250 | 10.0 | 19.0 | 0.00 | 0.00 | 0.00 | 32 | 1016.6 |
| 20260901120442 | 69 | 255 | 12.0 | 19.0 | 0.00 | 0.00 | 0.00 | 31 | 1016.6 |
| 20260901115958 | 69 | 256 | 11.0 | 16.0 | 0.00 | 0.00 | 0.00 | 28 | 1016.6 |
| 20260901115444 | 68 | 221 | 8.0 | 16.0 | 0.00 | 0.00 | 0.00 | 24 | 1016.6 |
| 20260901115007 | 68 | 224 | 8.0 | 19.0 | 0.00 | 0.00 | 0.00 | 29 | 1016.7 |
| 20260901114454 | 68 | 262 | 11.0 | 19.0 | 0.00 | 0.00 | 0.00 | 31 | 1016.7 |
| 20260901113948 | 68 | 273 | 5.0 | 16.0 | 0.00 | 0.00 | 0.00 | 22 | 1016.5 |
| 20260901113443 | 68 | 298 | 5.0 | 20.0 | 0.00 | 0.00 | 0.00 | 27 | 1016.5 |
| 20260901113018 | 68 | 277 | 12.0 | 20.0 | 0.00 | 0.00 | 0.00 | 26 | 1016.5 |
| 20260901112452 | 68 | 266 | 10.0 | 19.0 | 0.00 | 0.00 | 0.00 | 30 | 1016.5 |
| 20260901111948 | 69 | 241 | 9.0 | 19.0 | 0.00 | 0.00 | 0.00 | 29 | 1016.6 |
| 20260901111442 | 68 | 288 | 7.0 | 18.0 | 0.00 | 0.00 | 0.00 | 28 | 1016.6 |
| 20260901110957 | 68 | 250 | 7.0 | 14.0 | 0.00 | 0.00 | 0.00 | 24 | 1016.5 |
| 20260901110452 | 68 | 269 | 8.0 | 16.0 | 0.00 | 0.00 | 0.00 | 26 | 1016.5 |
| 20260901110006 | 68 | 223 | 6.0 | 13.0 | 0.00 | 0.00 | 0.00 | 25 | 1016.5 |
| 20260901105521 | 69 | 223 | 9.0 | 18.0 | 0.00 | 0.00 | 0.00 | 26 | 1016.6 |
| 20260901104955 | 68 | 290 | 10.0 | 19.0 | 0.00 | 0.00 | 0.00 | 20 | 1016.5 |
| 20260901104509 | 68 | 214 | 11.0 | 19.0 | 0.00 | 0.00 | 0.00 | 17 | 1016.6 |